TimeCDT,TemperatureF,Dew PointF,Humidity,Sea Level PressureIn,VisibilityMPH,Wind Direction,Wind SpeedMPH,Gust SpeedMPH,PrecipitationIn,Events,Conditions,WindDirDegrees,DateUTC
12:15 AM,46.4,37.4,71,30.17,10.0,North,3.5,-,N/A,,Clear,10,2012-04-23 05:15:00
12:35 AM,44.6,37.4,76,30.17,10.0,NNE,5.8,-,N/A,,Clear,20,2012-04-23 05:35:00
12:55 AM,46.4,37.4,71,30.17,10.0,North,5.8,-,N/A,,Clear,360,2012-04-23 05:55:00
1:15 AM,46.4,37.4,71,30.17,10.0,NNW,3.5,-,N/A,,Clear,330,2012-04-23 06:15:00
1:35 AM,44.6,37.4,76,30.17,10.0,North,3.5,-,N/A,,Clear,350,2012-04-23 06:35:00
1:55 AM,44.6,37.4,76,30.16,10.0,Calm,Calm,-,N/A,,Clear,0,2012-04-23 06:55:00
2:15 AM,44.6,37.4,76,30.16,10.0,Calm,Calm,-,N/A,,Clear,0,2012-04-23 07:15:00
2:35 AM,42.8,37.4,81,30.16,10.0,North,3.5,-,N/A,,Clear,350,2012-04-23 07:35:00
2:55 AM,42.8,37.4,81,30.17,10.0,Calm,Calm,-,N/A,,Clear,0,2012-04-23 07:55:00
3:15 AM,42.8,37.4,81,30.17,10.0,Calm,Calm,-,N/A,,Clear,0,2012-04-23 08:15:00
3:35 AM,42.8,37.4,81,30.17,10.0,Calm,Calm,-,N/A,,Clear,0,2012-04-23 08:35:00
3:55 AM,42.8,37.4,81,30.17,10.0,North,3.5,-,N/A,,Clear,360,2012-04-23 08:55:00
4:15 AM,42.8,37.4,81,30.17,10.0,North,3.5,-,N/A,,Clear,350,2012-04-23 09:15:00
4:35 AM,42.8,37.4,81,30.18,10.0,North,4.6,-,N/A,,Clear,10,2012-04-23 09:35:00
4:55 AM,42.8,37.4,81,30.18,10.0,Calm,Calm,-,N/A,,Clear,0,2012-04-23 09:55:00
5:15 AM,41.0,37.4,87,30.18,10.0,Calm,Calm,-,N/A,,Clear,0,2012-04-23 10:15:00
5:35 AM,41.0,37.4,87,30.18,10.0,Calm,Calm,-,N/A,,Clear,0,2012-04-23 10:35:00
5:55 AM,41.0,37.4,87,30.18,10.0,Calm,Calm,-,N/A,,Clear,0,2012-04-23 10:55:00
6:15 AM,41.0,37.4,87,30.18,10.0,Calm,Calm,-,N/A,,Clear,0,2012-04-23 11:15:00
6:35 AM,41.0,37.4,87,30.18,10.0,Calm,Calm,-,N/A,,Clear,0,2012-04-23 11:35:00
6:55 AM,39.2,37.4,93,30.19,10.0,Calm,Calm,-,N/A,,Clear,0,2012-04-23 11:55:00
7:15 AM,41.0,37.4,87,30.20,10.0,Calm,Calm,-,N/A,,Clear,0,2012-04-23 12:15:00
7:35 AM,42.8,39.2,87,30.20,10.0,North,3.5,-,N/A,,Clear,360,2012-04-23 12:35:00
7:55 AM,44.6,39.2,81,30.21,10.0,North,4.6,-,N/A,,Clear,360,2012-04-23 12:55:00
8:15 AM,46.4,39.2,76,30.21,6.0,NNW,3.5,-,N/A,,Clear,340,2012-04-23 13:15:00
8:35 AM,48.2,41.0,76,30.21,7.0,North,4.6,-,N/A,,Clear,350,2012-04-23 13:35:00
8:55 AM,48.2,39.2,71,30.21,8.0,North,4.6,-,N/A,,Clear,360,2012-04-23 13:55:00
9:15 AM,51.8,39.2,62,30.22,9.0,North,5.8,-,N/A,,Clear,360,2012-04-23 14:15:00
9:35 AM,51.8,39.2,62,30.22,10.0,North,6.9,-,N/A,,Clear,350,2012-04-23 14:35:00
9:55 AM,53.6,39.2,58,30.22,5.0,NNW,5.8,-,N/A,,Clear,340,2012-04-23 14:55:00
10:15 AM,53.6,37.4,54,30.22,6.0,NNE,8.1,-,N/A,,Clear,20,2012-04-23 15:15:00
10:35 AM,55.4,33.8,44,30.22,6.0,NNE,8.1,-,N/A,,Clear,30,2012-04-23 15:35:00
10:55 AM,55.4,33.8,44,30.22,3.0,NNW,9.2,-,N/A,,Clear,340,2012-04-23 15:55:00
11:15 AM,57.2,35.6,44,30.21,2.0,North,9.2,-,N/A,,Clear,350,2012-04-23 16:15:00
11:35 AM,57.2,33.8,41,30.22,7.0,NW,9.2,-,N/A,,Clear,310,2012-04-23 16:35:00
11:55 AM,57.2,33.8,41,30.21,10.0,North,6.9,-,N/A,,Clear,350,2012-04-23 16:55:00
12:15 PM,59.0,35.6,42,30.20,8.0,NNW,8.1,-,N/A,,Clear,340,2012-04-23 17:15:00
12:35 PM,60.8,37.4,42,30.19,5.0,NW,8.1,-,N/A,,Clear,320,2012-04-23 17:35:00
12:55 PM,60.8,37.4,42,30.18,4.0,NW,5.8,16.1,N/A,,Partly Cloudy,310,2012-04-23 17:55:00
1:15 PM,60.8,39.2,45,30.17,4.0,WNW,11.5,-,N/A,,Partly Cloudy,300,2012-04-23 18:15:00
1:35 PM,60.8,37.4,42,30.17,3.0,NNW,9.2,-,N/A,,Clear,330,2012-04-23 18:35:00
1:55 PM,60.8,39.2,45,30.16,4.0,WNW,5.8,17.3,N/A,,Clear,290,2012-04-23 18:55:00
2:15 PM,60.8,37.4,42,30.15,3.0,West,4.6,-,N/A,,Partly Cloudy,270,2012-04-23 19:15:00
2:35 PM,62.6,39.2,42,30.14,4.0,West,3.5,18.4,N/A,,Partly Cloudy,280,2012-04-23 19:35:00
2:55 PM,62.6,35.6,37,30.13,4.0,NW,11.5,16.1,N/A,,Partly Cloudy,310,2012-04-23 19:55:00
3:15 PM,62.6,37.4,39,30.12,5.0,WNW,10.4,-,N/A,,Clear,290,2012-04-23 20:15:00
3:35 PM,62.6,37.4,39,30.11,4.0,NW,9.2,-,N/A,,Clear,320,2012-04-23 20:35:00
3:55 PM,62.6,39.2,42,30.10,3.0,NW,8.1,-,N/A,,Clear,310,2012-04-23 20:55:00
4:15 PM,62.6,39.2,42,30.09,7.0,WNW,10.4,-,N/A,,Clear,300,2012-04-23 21:15:00
4:35 PM,62.6,37.4,39,30.09,4.0,WNW,10.4,-,N/A,,Clear,290,2012-04-23 21:35:00
4:55 PM,64.4,41.0,42,30.08,4.0,NW,9.2,19.6,N/A,,Clear,310,2012-04-23 21:55:00
5:15 PM,64.4,39.2,40,30.07,3.0,NW,8.1,-,N/A,,Clear,320,2012-04-23 22:15:00
5:35 PM,62.6,37.4,39,30.06,3.0,WNW,9.2,-,N/A,,Clear,290,2012-04-23 22:35:00
5:55 PM,62.6,37.4,39,30.06,10.0,NNW,8.1,-,N/A,,Clear,340,2012-04-23 22:55:00
6:15 PM,62.6,39.2,42,30.05,10.0,NW,6.9,-,N/A,,Clear,320,2012-04-23 23:15:00
6:35 PM,62.6,37.4,39,30.05,10.0,NW,4.6,-,N/A,,Clear,310,2012-04-23 23:35:00
6:55 PM,62.6,37.4,39,30.04,10.0,NW,5.8,-,N/A,,Clear,320,2012-04-23 23:55:00
7:15 PM,60.8,39.2,45,30.04,10.0,NW,8.1,-,N/A,,Clear,310,2012-04-24 00:15:00
7:35 PM,60.8,39.2,45,30.03,10.0,West,6.9,-,N/A,,Clear,270,2012-04-24 00:35:00
7:55 PM,57.2,39.2,51,30.03,10.0,West,4.6,-,N/A,,Clear,280,2012-04-24 00:55:00
8:15 PM,57.2,39.2,51,30.03,10.0,West,4.6,-,N/A,,Clear,280,2012-04-24 01:15:00
8:35 PM,55.4,39.2,54,30.03,10.0,West,3.5,-,N/A,,Clear,280,2012-04-24 01:35:00
8:55 PM,53.6,39.2,58,30.03,10.0,West,3.5,-,N/A,,Clear,260,2012-04-24 01:55:00
9:15 PM,53.6,39.2,58,30.04,10.0,Calm,Calm,-,N/A,,Clear,0,2012-04-24 02:15:00
9:35 PM,51.8,39.2,62,30.04,10.0,Calm,Calm,-,N/A,,Clear,0,2012-04-24 02:35:00
9:55 PM,51.8,39.2,62,30.04,10.0,Calm,Calm,-,N/A,,Clear,0,2012-04-24 02:55:00
10:15 PM,51.8,39.2,62,30.04,10.0,Calm,Calm,-,N/A,,Clear,0,2012-04-24 03:15:00
10:35 PM,50.0,39.2,66,30.04,10.0,Calm,Calm,-,N/A,,Clear,0,2012-04-24 03:35:00
10:55 PM,48.2,39.2,71,30.04,10.0,Calm,Calm,-,N/A,,Clear,0,2012-04-24 03:55:00
11:15 PM,48.2,39.2,71,30.03,10.0,Calm,Calm,-,N/A,,Clear,0,2012-04-24 04:15:00
11:35 PM,48.2,39.2,71,30.03,10.0,Calm,Calm,-,N/A,,Clear,0,2012-04-24 04:35:00
11:55 PM,46.4,39.2,76,30.03,10.0,South,3.5,-,N/A,,Clear,170,2012-04-24 04:55:00